Погода Томпо

Погода Томпо : погода сейчас, прогноз погоды и архив. Всё, что Вы хотите узнать о погоде Томпо!

Хотите узнать прогноз погоды Томпо? Тогда Вам сюда: Погода Томпо

Поиск расширенной информации на нашем сайте:

Другие новости

Новости СМИ2

Главная страница сайта

Новости сайта

02.10.2013

Напоминаем, что на нашем новом сайте вы можете получить высокодетализированные прогнозы погоды по пунктам России, СНГ и мира (включающие важные для авиации метеовеличины, такие как направление и скорость ветра, видимость, явления погоды, количество и форма облачности, нижняя и верхняя граница облачности), а также ознакомиться с разнообразными материалами по авиационной метеорологии и подборкой полезных ссылок на эту тему.

Сайт Метеоцентр.Азия посвящён разработке технологий оптимизации авиаметеорологического обслуживания, включая проектирование и перспективное создание нескольких автоматизированных авиаметеорологических систем:
- система выпуска высокодетальных прогностических карт явлений погоды для нижнего воздушного пространства по России и ближнему зарубежью;
- система верификации прогнозов TAF (выпускаемых синоптиками официальных АМСГ РФ и ближнего зарубежья) и AUTOTAF (выпускаемых сайтом Метеоцентр.Азия) - выявление ошибок, онлайн-сопоставление с фактической погодой METAR, автоматическое внесение коррективов в прогнозы при резком отклонении фактической погоды от прогноза, подсчёт оправдываемости прогнозов по элементам и в целом;
- система обработки, анализа и отображения авиаметеорологической информации для применения провайдерами метеорологической информации.

Рекомендуем: Отрасли промышленности http://promyshlennosts.ru

Погода Томпо - сегодня

Время (UTC), дата Ветер
(°,м/с) 
Видим.   Явления Облачность Т
(°С)
Тd
(°С)
f(%) Тe
(°С)
Pmin
(гПа)
dP
(гПа)
Po
(мм)
O2
(г/м3)
Тmin Tmax R s Состояние
почвы
15 22.05.17 000 (С) //  20000 м    ясно 
-2.1 -8.8 60 -2  1010.4  0.8  721  293           
18 22.05.17 310 (СЗ) //  20000 м    ясно 
-5 -9.5 71 -5  1011.8  0.7  721  297           
21 22.05.17 360 (С) //  20000 м    ясно 
-0.9 -4.8 75 -1  1011.3  0.3  721  292  +5        замёрзшая 
00 23.05.17 360 (С) //  20000 м    9/0 верхняя 
[Ci fib]
+4.2 -6.6 45 +4  1009.4  -0.8  721  287           
03 23.05.17 300 (СЗ) //  20000 м    1/0 верхняя 
[Ci fib]
+9.9 +1.4 55 +10  1006.9  -1.4  720  280           
06 23.05.17 000 (С) //  20000 м    3/0 средняя, верхняя 
[Ac trans|Ci fib]
+14.4 -4.9 26 +14  1004.5  -1.6  718  275           
09 23.05.17 180 (Ю) //  20000 м    5/0 средняя, верхняя 
[Ac trans|Ci fib]
+14.7 -6.7 22 +15  1003.9  -0.6  718  275    +15.8       
12 23.05.17 120 (ЮВ) //  20000 м    1/0 верхняя 
[Ci fib]
+13.2 -4.2 30 +13  1004.6  0.5  718  276           
15 23.05.17 300 (СЗ) //  20000 м    1/0 верхняя 
[Ci fib]
+2 -6.8 52 +2  1007.4  0.7  719  288           
18 23.05.17 360 (С) //  20000 м    3/0 средняя 
[Ac trans]
-1.3 -6.8 66 -1  1009.2  1.2  720  292           
21 23.05.17 300 (СЗ) //  20000 м    6/3 1000 м 
[Sc]
+1.7 -6 57 +2  1009  0.3  720  289  -2.5        влажная 
00 24.05.17 260 (З) //  20000 м    ясно 
+8.9 -5.8 35 +9  1006.8  -1  719  281           
03 24.05.17 160 (Ю) //  20000 м    3/0 верхняя 
[Ci fib]
+16.6 -5.2 22 +17  1002.5  -2.7  717  273           
06 24.05.17 240 (ЮЗ) //{10}  20000 м    6/4 600 м кучево-дожд., верхняя 
[Cb cap|Ci fib]
+20.1 -4.6 18 +20  999.5  -2.3  716  269           
09 24.05.17 210 (ЮЗ) //{10}  20000 м    9/5 600 м верхняя 
[Cu Sc|Ci fib]
+18.5 -5.1 20 +19  996.7  -3  713  270    +20.3       
12 24.05.17 190 (Ю) //  20000 м    9/3 1000 м средняя, верхняя 
[Sc diur, vesp|Ac As|Ci fib]
+16 -2.5 28 +16  994.9  -2  712  271           
15 24.05.17 210 (ЮЗ) //  20000 м    10/10 600 м кучево-дожд. 
[Cb cap]
+14.5 -1 34 +15  992.7  -2.4  710  272           
18 24.05.17 210 (ЮЗ) //{12}  20000 м    10/10 600 м кучево-дожд. 
[Cb cap]
+12.9 +0.5 43 +13  992.6  -0.2  710  273           
21 24.05.17 170 (Ю) //  10 км  слаб. ливневой дождь  10/10 300 м кучево-дожд. 
[Cb cap]
+5.9 +1.4 73 +6  994.1  0.1  710  280  -5.6    0.4    влажная 
00 25.05.17 180 (Ю) //  20000 м  {ливн. осадки}  9/9 300 м кучево-дожд. 
[Cb cap]
+7.4 +3.4 76 +7  993.7  -0.2  710  278           
03 25.05.17 170 (Ю) //  20000 м  {ливн. осадки}  10/10 300 м кучево-дожд. 
[Cb cap]
+7.9 +1.6 64 +8  992.5  -1.2  709  277           
06 25.05.17 260 (З) //  20000 м  {ливн. осадки}  8/8 600 м кучево-дожд. 
[Cb cap]
+9.3 +5.1 75 +9  992.2  709  275           
09 25.05.17 250 (З) //  20000 м    6/6 600 м 
[Cu med, cong]
+9.9 -0.4 49 +10  992.3  0.3  709  276    +10.5     
12 25.05.17 000 (С) //  20000 м    9/8 600 м верхняя 
[Cu Sc|Ci fib]
+7.9 -2.7 47 +8  993.8  710  278           
15 25.05.17 000 (С) //  20000 м    9/9 600 м 
[Cu Sc]
+2.7 -3.2 65 +3  996  1.2  711  284           
Время (UTC), дата Ветер
(°,м/с) 
Видим.   Явления Облачность Т
(°С)
Тd
(°С)
f(%) Тe
(°С)
Pmin
(гПа)
dP
(гПа)
Po
(мм)
O2
(г/м3)
Тmin Tmax R s Состояние
почвы

Для получения пояснительной информации подведите курсор к названию столбца.

ПОГОДА Томпо - архив

Всё, что Вы хотите узнать о погоде Томпо - удобно и подробно!

Выберите нужную дату (начиная с 1 января 2015* года) и нажмите кнопку "Найти".
Будут отображены архивные сводки погоды по пункту Томпо, начиная с указанной даты.


Отображать данные в формате CSV (для использования в таблицах Excel)


Внимание! Наш архив погоды предназначен исключительно для личного некоммерческого использования в познавательных целях. Если Вам необходимы официальные справки о состоянии погоды (для производственных, юридических, коммерческих и т.п. целей), обращайтесь в органы Росгидромета.

*Примечание: данная дата относится к архиву по метеостанциям СССР (Россия, СНГ, Балтия).
Архив по метеостанциям Зарубежной Европы и Азии (кроме Китая) хранится 10 дней, по другим регионам земного шара (Китай, Африка, Америка, Австралия, Океания) - 1 день.

Томпо - район местоположения метеостанции


Название, широта, долгота, высота метеостанции:
Томпо 63.9°ш. 135.9°д. 402 м над ур. моря [Российская Федерация]

Дополнительная информация

В oтличие oт бoльшинства пoгoдных сайтoв мы публикуем пoдрoбную метеoинфoрмацию в детальнoм прoфессиoнальнoм фoрмате.

Характеристики температуры и влажнoсти вoздуха измеряются на высoте 2 м в тени вдали oт зданий и деревьев.
Скoрoсть ветра измеряется на высoте 10 м (на урoвне рoста челoвека скoрoсть ветра ниже в 1.5-2 раза). Если метеoстанция нахoдится в гoрoде или в лесу, тo скoрoсть ветра занижена на 2-4 м/с пo сравнению с oткрытым местoм. Скoрoсть ветра над акватoриями крупных рек и oзёр, а также на вершинах хoлмoв на 2-5 м/с выше, чем в oбычных услoвиях.
Атмoсфернoе давление в разных тoчках местнoсти мoжет значительнo oтличаться oт давления на метеoстанции, в зависимoсти oт услoвий рельефа (при пoдъёме на 10 м давление пoнижается примернo на 1 мм рт.ст.).